Regional Weather Roundup
Issued by NWS

Home | Current Version | Previous Version | Text Only | Print | Product List | Glossary On
Versions: 1 2 3 4 5 6 7 8 9 10 11 12 13 14 15 16 17 18 19 20 21 22 23 24 25 26 27 28 29 30 31 32 33 34 35 36 37 38 39 40 41 42 43 44 45 46 47 48 49 50
450
ASCA44 KEWX 201120
RWRMX

LATIN AMERICA AND CARIBBEAN REGIONAL WEATHER ROUNDUP
NATIONAL WEATHER SERVICE AUSTIN/SAN ANTONIO TX
600 AM CDT WED SEP 20 2017

NOTE: "FAIR" INDICATED FEW OR NO CLOUDS BELOW 12,000 FEET WITH NO
SIGNIFICANT WEATHER AND/OR OBSTRUCTIONS TO VISIBILITY.

BAJA CALIFORNIA

CITY           SKY/WX    TMP DP  RH WIND       PRES   REMARKS
S.J. DEL CABO  CLEAR     75  70  83 W5        29.85S
TIJUANA        MOCLDY    66  57  72 CALM      29.90F

NORTHWESTERN MEXICO

CITY           SKY/WX    TMP DP  RH WIND       PRES   REMARKS
GUAYMAS        PTCLDY    84  81  89 CALM      29.77  HX  98
HERMOSILLO     CLEAR     82  75  78 CALM      29.86S
LOS MOCHIS     CLEAR     81  73  78 NE6       29.84

NORTHEASTERN MEXICO

CITY           SKY/WX    TMP DP  RH WIND       PRES   REMARKS
MONCLOVA       PTCLDY    79  64  61 CALM      29.87
MONTERREY      PTCLDY    75  68  78 E5        29.86R
REYNOSA        CLEAR     77  72  83 SE7       29.85R
SALTILLO       CLEAR     66  54  63 CALM      30.10
CD. VICTORIA   CLEAR     77  70  78 S17       29.86S

WESTERN MEXICO

CITY           SKY/WX    TMP DP  RH WIND       PRES   REMARKS
AGUASCALIENTES PTCLDY    59  57  94 N3        30.20S
COLIMA         PTCLDY    72  70  94 CALM      29.99S
DEL BAJIO      PTCLDY    59  54  82 NE7       30.23S
GUADALAJARA    CLOUDY    63  61  94 CALM      30.14R
MANZANILLO     PTCLDY    77  75  94 N9        29.81
MAZATLAN       LGT RAIN  81  79  94 NW3       29.84S
P. VALLARTA    MOCLDY    79  79 100 CALM      29.83S
URUAPAN          N/A    N/A N/A N/A MISG        N/A
ZACATECAS      MOCLDY    54  46  76 CALM      30.24F

CENTRAL MEXICO

CITY           SKY/WX    TMP DP  RH WIND       PRES   REMARKS
CUERNAVACA       N/A    N/A N/A N/A MISG        N/A
MEXICO CITY    CLOUDY    63  54  72 W6        30.28S
MORELIA        MOCLDY    61  61 100 CALM      30.18S
POZA RICA        N/A    N/A N/A N/A MISG        N/A
S. LUIS POTOSI CLEAR     55  54  94 CALM      30.21S
TOLUCA         MOCLDY    54  50  87 CALM      30.32S

SOUTHERN MEXICO

CITY           SKY/WX    TMP DP  RH WIND       PRES   REMARKS
ACAPULCO       LGT RAIN  77  75  94 W6        29.83R
B. DE HUATULCO   N/A    N/A N/A N/A MISG        N/A
OAXACA         MOCLDY    61  59  94 NW3       30.16
P. ESCONDIDO     N/A    N/A N/A N/A MISG        N/A
VERACRUZ       CLEAR     77  75  94 W3        29.89

YUCATAN PENINSULA

CITY           SKY/WX    TMP DP  RH WIND       PRES   REMARKS
CAMPECHE       MOCLDY    79  79 100 E8        29.86
CANCUN         LGT RAIN  77  77 100 NE6       29.92S
CHETUMAL       PTCLDY    82  77  83 E7        29.88  HX  91
CD. DEL CARMEN CLEAR    N/A N/A N/A E9        29.83F
COZUMEL        PTCLDY    77  75  94 CALM      29.90R
MERIDA         MOCLDY    79  77  94 E6        29.90R
MINATITLAN     DRIZZLE   75  75 100 CALM      29.85R
TAPACHULA      PTCLDY    75  75 100 CALM      29.84S
TUX. GUTIERREZ CLOUDY    72  72 100 CALM      29.93F
VILLAHERMOSA   CLOUDY    75  75 100 CALM      29.88R

CENTRAL AMERICA

CITY           SKY/WX    TMP DP  RH WIND       PRES   REMARKS
BELIZE CITY    PTCLDY    81  79  94 E5        29.85

CARIBBEAN

CITY           SKY/WX    TMP DP  RH WIND       PRES   REMARKS
ARUBA          PTCLDY    82  77  83 VRB1      29.83S HX  91
CURACAO        PTCLDY    81  75  83 CALM      29.86S
KINGSTON       PTCLDY    82  73  74 VRB2      29.89
NASSAU         PTCLDY    77  72  83 CALM      29.98R
SANTO DOMINGO  MOCLDY    79  75  89 N7        29.83S

$$





USA.gov is the U.S. government's official web portal to all federal, state and local government web resources and services.